TimeEDT,TemperatureF,Dew PointF,Humidity,Sea Level PressureIn,VisibilityMPH,Wind Direction,Wind SpeedMPH,Gust SpeedMPH,PrecipitationIn,Events,Conditions,WindDirDegrees,DateUTC
12:53 AM,57.9,39.9,51,29.80,10.0,SSW,24.2,34.5,0.00,Rain,Light Rain,200,2013-03-11 04:53:00
1:53 AM,54.0,43.0,66,29.78,10.0,South,17.3,-,0.00,Rain,Light Rain,190,2013-03-11 05:53:00
3:53 AM,52.0,45.0,77,29.75,10.0,South,20.7,28.8,0.04,,Overcast,180,2013-03-11 07:53:00
4:53 AM,52.0,46.9,83,29.75,7.0,South,27.6,36.8,0.03,Rain,Light Rain,180,2013-03-11 08:53:00
5:53 AM,51.1,46.9,86,29.73,10.0,South,20.7,27.6,0.02,,Overcast,170,2013-03-11 09:53:00
6:53 AM,51.1,46.0,83,29.75,10.0,South,17.3,28.8,0.00,,Overcast,170,2013-03-11 10:53:00
7:53 AM,51.1,46.0,83,29.72,10.0,South,33.4,41.4,0.04,Rain,Light Rain,170,2013-03-11 11:53:00
8:53 AM,50.0,46.0,86,29.74,7.0,South,25.3,38.0,0.05,Rain,Light Rain,170,2013-03-11 12:53:00
9:53 AM,50.0,45.0,83,29.72,10.0,SSE,19.6,28.8,0.02,Rain,Light Rain,160,2013-03-11 13:53:00
10:53 AM,52.0,44.1,74,29.70,10.0,SSE,18.4,31.1,0.00,,Overcast,160,2013-03-11 14:53:00
11:53 AM,52.0,44.1,74,29.64,10.0,SSE,20.7,31.1,N/A,,Overcast,160,2013-03-11 15:53:00
12:53 PM,51.1,45.0,80,29.62,8.0,SSE,18.4,27.6,0.01,Rain,Light Rain,160,2013-03-11 16:53:00
1:53 PM,51.1,46.0,83,29.57,10.0,SSE,19.6,27.6,0.04,Rain,Light Rain,160,2013-03-11 17:53:00
2:53 PM,54.0,46.9,77,29.51,10.0,South,31.1,38.0,0.01,,Overcast,170,2013-03-11 18:53:00
3:00 PM,53.6,46.4,77,29.51,10.0,South,29.9,39.1,N/A,,Overcast,170,2013-03-11 19:00:00
3:43 PM,51.8,48.2,88,29.54,1.8,SW,31.1,44.9,0.07,Rain,Heavy Rain,230,2013-03-11 19:43:00
3:50 PM,48.2,44.6,87,29.55,2.0,WSW,23.0,46.0,0.09,Rain,Light Rain,240,2013-03-11 19:50:00
3:53 PM,48.9,44.1,83,29.55,4.0,WSW,25.3,46.0,0.09,Rain,Light Rain,240,2013-03-11 19:53:00
3:55 PM,48.2,44.6,87,29.55,7.0,WSW,27.6,39.1,0.00,Rain,Light Rain,240,2013-03-11 19:55:00
4:53 PM,48.0,44.1,86,29.56,10.0,SW,18.4,25.3,0.03,Rain,Light Rain,230,2013-03-11 20:53:00
5:34 PM,48.2,42.8,82,29.57,10.0,WSW,19.6,26.5,0.00,,Overcast,240,2013-03-11 21:34:00
5:53 PM,46.9,42.1,83,29.59,10.0,WSW,25.3,29.9,0.00,,Overcast,250,2013-03-11 21:53:00
6:31 PM,46.4,39.2,76,29.62,10.0,West,20.7,27.6,N/A,,Overcast,260,2013-03-11 22:31:00
6:39 PM,44.6,39.2,81,29.63,10.0,West,24.2,31.1,N/A,,Overcast,270,2013-03-11 22:39:00
6:53 PM,43.0,37.9,82,29.65,10.0,WSW,25.3,31.1,N/A,,Overcast,250,2013-03-11 22:53:00
7:03 PM,42.8,37.4,81,29.65,10.0,WSW,21.9,32.2,N/A,,Overcast,250,2013-03-11 23:03:00
7:53 PM,42.1,35.1,76,29.67,10.0,WSW,17.3,29.9,N/A,,Overcast,240,2013-03-11 23:53:00
8:53 PM,39.0,33.1,79,29.70,10.0,WSW,21.9,27.6,N/A,,Partly Cloudy,250,2013-03-12 00:53:00
9:24 PM,39.2,33.8,81,29.72,10.0,WSW,15.0,24.2,N/A,,Overcast,240,2013-03-12 01:24:00
9:53 PM,37.9,32.0,79,29.74,10.0,WSW,20.7,27.6,N/A,,Overcast,240,2013-03-12 01:53:00
10:40 PM,37.4,30.2,75,29.75,10.0,WSW,21.9,27.6,N/A,,Overcast,250,2013-03-12 02:40:00
10:53 PM,37.9,30.9,76,29.76,10.0,WSW,20.7,25.3,N/A,,Overcast,240,2013-03-12 02:53:00
11:06 PM,37.4,32.0,81,29.77,10.0,West,20.7,25.3,N/A,,Overcast,260,2013-03-12 03:06:00
11:53 PM,36.0,30.9,82,29.78,10.0,WSW,17.3,23.0,N/A,,Overcast,240,2013-03-12 03:53:00